Regional Weather Roundup
Issued by NWS Sterling, VA

Current Version | Previous Version | Text Only | Print | Product List | Glossary On
Versions: 1 2 3 4 5 6 7 8 9 10 11 12 13 14 15 16 17 18 19 20 21 22 23 24 25 26 27 28 29 30 31 32 33 34 35 36 37 38 39 40 41 42 43 44 45 46 47 48 49 50
000
ASUS41 KLWX 270710
RWRLWX

REGIONAL WEATHER ROUNDUP
NATIONAL WEATHER SERVICE BALTIMORE MD/WASHINGTON DC
300 AM EDT MON JUN 27 2016

Note: "FAIR" indicates few or no clouds below 12,000 feet
with no significant weather and/or obstructions to visibility.
 TC=TEMPERATURE CELSIUS

 * =Non NWS site. Station does not report precipitation (e.g. rain,
    snow, etc.), thunder, or fog.

DCZ001-MDZ009-015-VAZ040>042-051-053>054-270800-
WASHINGTON METRO

CITY           SKY/WX    TMP DP  RH WIND       PRES   REMARKS
WASHINGTON NAT FAIR      69  62  78 S9        30.12F
DULLES         FAIR      64  59  83 S3        30.12F
ANDREWS AFB    CLEAR     63  61  92 S6        30.11F
FT BELVOIR     FAIR      64  62  93 SE2       30.12F
QUANTICO       FAIR      69  62  78 W6        30.13F
COLLEGE PARK*  FAIR      63  61  94 CALM      30.11F
LEESBURG*      FAIR      68  63  83 S3        30.12F
MANASSAS*      FAIR      64  63  94 CALM      30.12F
GAITHERSBURG*  CLEAR     66  57  72 CALM      30.16F

$$

MDZ006>007-011-014-270800-
BALTIMORE METRO

CITY           SKY/WX    TMP DP  RH WIND       PRES   REMARKS
BWI AIRPORT    CLEAR     65  61  87 CALM      30.11F
MD SCIENCE CTR   N/A     70  61  73 MISG      30.12F
MARTIN STATE   CLEAR     70  64  83 S5        30.12F
ANNAPOLIS      CLEAR     69  63  81 SW5       30.12F
FORT MEADE*    CLEAR     57  55  94 CALM      30.14F

$$

MDZ012-015-019>023-270800-
MARYLAND EASTERN SHORE

CITY           SKY/WX    TMP DP  RH WIND       PRES   REMARKS
OCEAN CITY     MOCLDY    66  64  93 CALM      30.15F
SALISBURY      CLOUDY    65  64  97 W5        30.15F FOG
BAY BRIDGE AP* CLEAR     70  66  88 S6        30.12F
CAMBRIDGE*     CLEAR     59  59 100 CALM      30.13F
EASTON*        CLEAR     65  65 100 S6        30.16F

$$

MDZ017>025-270800-
SOUTHERN MARYLAND

CITY           SKY/WX    TMP DP  RH WIND       PRES   REMARKS
PATUXENT RIVER CLEAR     66  62  87 S5        30.12F
ST INIGOES     CLEAR     62  61  96 CALM      30.12F
LEONARDTOWN*   CLEAR     63  61  94 CALM      30.14F

$$

MDZ003>005-270800-
NORTH CENTRAL MARYLAND

CITY           SKY/WX    TMP DP  RH WIND       PRES   REMARKS
FREDERICK*     CLEAR     63  59  88 CALM      30.13F
HAGERSTOWN APT PTCLDY    70  55  59 S6        30.10F
WESTMINSTER*   CLEAR     66  63  88 S3        30.13S

$$

MDZ501>502-270800-
WESTERN MARYLAND

CITY           SKY/WX    TMP DP  RH WIND       PRES   REMARKS
OAKLAND*       PTCLDY    64  61  88 SW6       30.16F
CUMBERLAND*    MOCLDY    64  64 100 CALM      30.12F

$$

VAZ025>031-270800-
SHENANDOAH VALLEY

CITY           SKY/WX    TMP DP  RH WIND       PRES   REMARKS
WINCHESTER*    FAIR      68  55  64 S5        30.09F
FRONT ROYAL*   FAIR      64  61  88 S3        30.10F
LURAY*         FAIR      63  63 100 CALM      30.11F
NEW MARKET*    FAIR      68  62  80 SW3       30.10F
STAUNTON*      FAIR      63  60  90 CALM      30.14F
WAYNESBORO*    FAIR      63  60  89 S3        30.14F

$$

WVZ021-048>050-054>055-270800-
EASTERN WEST VIRGINIA PANHANDLE

CITY           SKY/WX    TMP DP  RH WIND       PRES   REMARKS
MARTINSBURG    FAIR      62  58  86 W3        30.08F
PETERSBURG*    FAIR      65  64  99 CALM      30.10F FOG

$$

VAZ036>039-050-270800-
CENTRAL FOOTHILLS

CITY           SKY/WX    TMP DP  RH WIND       PRES   REMARKS
CHARLOTTESVILL FAIR      64  61  90 CALM      30.12F
CULPEPER*      FAIR      62  61  98 CALM      30.13F
ORANGE*        FAIR      63  63 100 CALM      30.14F
GORDONSVILLE*  FAIR      63  62  99 CALM      30.12F
WARRENTON*     FAIR      65  59  81 CALM      30.12F

$$

VAZ055>057-270800-
NORTH AND CENTRAL PIEDMONT

CITY           SKY/WX    TMP DP  RH WIND       PRES   REMARKS
FREDERICKSBRG* FAIR      66  66 100 CALM      30.11F
STAFFORD*      FAIR      60  58  92 CALM      30.15F

$$

NCZ024-NYZ072-PAZ021-071-VAZ022-071-270800-
OTHER REGIONAL OBSERVATIONS

CITY           SKY/WX    TMP DP  RH WIND       PRES   REMARKS
NEW YORK CITY  CLEAR     70  51  51 VRB6      30.14F
PHILADELPHIA   PTCLDY    65  60  84 S7        30.14F
PITTSBURGH     PTCLDY    75  63  66 CALM      30.03F
ROANOKE        FAIR      67  64  90 CALM      30.16F
RICHMOND       FAIR      63  62  97 SE3       30.13F
RALEIGH        PTCLDY    66  60  81 E3        30.13F

$$

ANZ530>537-270800-
MARINE OBSERVATIONS

STATION/POSITION TIME  TEMP    WIND        PRES
                       AIR SEA DIR/SP/G
                 (UTC) (F)     (DEG/KT/KT) (MB)
THOMAS PT LIGHT  0700   72 75  210/ 12/ 13 1021.3F
BALT KEY BRIDGE  0648          190/  7/  8 1019.7F
COVE POINT       0648          210/  8/ 10 1020.7F
LEWISETTA        0642      80  200/  3/  4 1020.2F
SOLOMONS ISLAND  0642      78  170/  6/  7   N/A
PINEY POINT      0648          190/  7/  8   N/A

$$




USA.gov is the U.S. government's official web portal to all federal, state and local government web resources and services.